Location: Newark
(35.2672°N, 80.7344°W)
Time: 21:15:18
(UTC+00:00)

S-56A Canister/Altair - Visible Passes

Search period start: 19 January 2020 00:00
Search period end: 29 January 2020 00:00
Orbit: 634 x 2498 km, 38.9° (Epoch: 18 January)

Date Brightness Start Highest point End Pass type
(mag) Time Alt. Az. Time Alt. Az. Time Alt. Az.
19 Jan 10.5 08:38:37 14° SE 08:38:37 14° SE 08:39:34 10° SE visible
19 Jan 9.7 10:36:04 19° SW 10:36:53 19° SSW 10:42:18 10° S visible
20 Jan 10.1 01:43:40 10° SSW 01:44:52 15° SSW 01:44:52 15° SSW visible
20 Jan 9.8 10:05:25 20° SSW 10:05:25 20° SSW 10:09:31 10° SSE visible
21 Jan 9.5 01:10:52 10° SSW 01:14:14 22° S 01:14:14 22° S visible
21 Jan 10.1 09:34:47 16° S 09:34:47 16° S 09:36:45 10° SSE visible
22 Jan 9.1 00:38:02 10° SSW 00:43:36 25° SSE 00:43:36 25° SSE visible
23 Jan 9.2 00:05:11 10° SSW 00:10:59 23° SSE 00:12:56 20° ESE visible
23 Jan 10.1 02:08:39 10° WSW 02:10:23 18° WSW 02:10:23 18° WSW visible
23 Jan 9.6 23:32:20 10° SSW 23:38:13 21° SSE 23:42:16 12° ESE visible
24 Jan 9.1 01:35:32 10° WSW 01:39:43 35° SW 01:39:43 35° SW visible
24 Jan 9.9 22:59:30 10° S 23:05:25 20° SSE 23:10:03 10° ESE visible
25 Jan 8.1 01:02:20 10° SW 01:09:01 57° S 01:09:01 57° S visible
26 Jan 8.1 00:29:06 10° SW 00:36:56 55° SSE 00:38:18 45° ESE visible
26 Jan 10.5 02:34:49 10° W 02:35:44 14° W 02:35:44 14° W visible
26 Jan 8.6 23:55:50 10° SW 00:04:11 50° SSE 00:07:34 25° E visible
27 Jan 9.6 02:01:35 10° W 02:05:00 29° W 02:05:00 29° W visible
27 Jan 9.0 23:22:32 10° SW 23:31:24 46° SSE 23:36:48 13° E visible
28 Jan 8.5 01:28:15 10° WSW 01:34:14 55° W 01:34:14 55° W visible
